500 AM CST FRI JAN 22 2021

ALZ051>064-221200-
SOUTHWEST ALABAMA
  
CITY           SKY/WX    TMP DP  RH WIND       PRES   REMARKS
MOBILE         CLOUDY    61  61 100 SW3       29.89F                  
BROOKLEY FIELD CLOUDY    64  63  96 VRB5      29.91S FOG              
EVERGREEN      HVY RAIN  60  56  86 CALM      29.92S FOG